Historique des mesures à Cassis (13260), France
Quotidien Résumé Fevrier 6, 2018 Unités:  Métrique    US   Métrique/US
« Précédent (Jour)
Suivant (Jour) »
Quotidien Hebdomadaire Mensuel Annuel Période au choix
  Maximum: Minimum: Moyenne:
Température: TemperatureC °C 7.9 °C 9.8 °C
Point de rosée: DewpointC °C 4.5 °C 5.2 °C
Humidité: Humidity % 65 % 69 %
Vitesse du vent: 0 km/h 0 km/h 8.7 km/h
Rafales: 0 km/h - -
Vent:- - SE
Pression: PressurehPa hPa 1001.9 hPa -
Précipitations: 25.4 mm    
Historical Graphs
 
 
Mesures pour : Fevrier 6, 2018
Heure Temperature Point de rosée Pression Vent Vitesse du vent Rafales Humidité Pluie (par heure)
TemperatureC °C DewpointC °C PressurehPa hPa Calm     Humidity % 0 mm
00:12 9.9 °C 4.9 °C 1008.4 hPa Calm   11.6 km/h 71 % 0 mm
01:12 10.1 °C 5.1 °C 1008.0 hPa SSE 9.8 km/h 9.8 km/h 71 % 0 mm
02:12 10.1 °C 5.1 °C 1007.3 hPa ESE 10.3 km/h 10.3 km/h 71 % 0 mm
03:12 9.9 °C 5.3 °C 1007.0 hPa ENE 16.3 km/h 21.6 km/h 73 % 0 mm
04:12 9.8 °C 5.4 °C 1006.3 hPa ESE 7.6 km/h 7.6 km/h 74 % 0 mm
05:12 9.3 °C 5.6 °C 1006.0 hPa Calm     78 % 12.7 mm
06:12 9.2 °C 5.9 °C 1006.0 hPa South 3.4 km/h 6.9 km/h 80 % 12.7 mm
07:12 9.3 °C 5.8 °C 1005.0 hPa Calm   13.2 km/h 79 % 0 mm
08:12 9.6 °C 5.6 °C 1004.6 hPa Calm   14 km/h 76 % 0 mm
09:12 9.9 °C 5.4 °C 1004.3 hPa East 8 km/h 17.4 km/h 74 % 0 mm
10:12 10.7 °C 5.9 °C 1004.3 hPa ESE 9.8 km/h 12.7 km/h 72 % 0 mm
11:12 10.9 °C 5.7 °C 1004.6 hPa ENE 12.7 km/h 12.7 km/h 70 % 0 mm
12:12 10.7 °C 5.5 °C 1004.3 hPa NNE 7.6 km/h 8 km/h 70 % 0 mm
13:12 10.6 °C 5.8 °C 1002.9 hPa East 3.4 km/h 9.8 km/h 72 % 0 mm
14:12 11.6 °C 5.7 °C 1002.6 hPa NE 6.4 km/h 12.2 km/h 67 % 0 mm
15:12 11.7 °C 5.3 °C 1001.9 hPa ESE 6.9 km/h 20.3 km/h 65 % 0 mm
16:12 11.8 °C 5.4 °C 1001.9 hPa ESE 5.6 km/h 5.6 km/h 65 % 0 mm
17:12 11.2 °C 4.8 °C 1002.3 hPa ESE 17.4 km/h 17.4 km/h 65 % 0 mm
18:12 10.9 °C 5.0 °C 1002.3 hPa Calm     67 % 0 mm
19:12 10.8 °C 5.1 °C 1002.6 hPa Calm     68 % 0 mm
20:12 9.9 °C 5.4 °C 1002.9 hPa WNW 10.3 km/h 21.6 km/h 74 % 0 mm
21:12 9.4 °C 5.3 °C 1002.9 hPa WNW 27.2 km/h 32.3 km/h 76 % 0 mm
22:12 8.9 °C 5.4 °C 1002.9 hPa West 16.3 km/h 33.6 km/h 79 % 0 mm
23:12 7.9 °C 4.5 °C 1002.9 hPa WNW 37 km/h 37 km/h 79 % 0 mm
Observations météo à CASSIS
WU-History script by Weather Underground - 1 mb